Location: Rockford
(42.2710°N, 89.0940°W)
Time: 01:47:24
(UTC-05:00)

Daily predictions for brighter satellites

Satellite Brightness Start Highest point End
(mag) Time Altitude Azimuth Time Altitude Azimuth Time Altitude Azimuth
SL-16 R/B 4.2 02:50:33 25° N 02:50:33 25° N 02:53:01 10° N
Cosmos 2227 Rocket 4.2 03:34:18 18° NNW 03:34:18 18° NNW 03:36:18 10° N
Resurs 1-4 Rocket 3.7 03:27:53 10° N 03:30:23 29° N 03:30:23 29° N
Atlas Centaur 2 4.4 03:39:52 15° SE 03:39:52 15° SE 03:41:07 10° ESE
Cosmos 2263 Rocket 3.6 03:40:13 31° ESE 03:40:46 31° ESE 03:45:44 10° NE
Cosmos 2279 Rocket 4.2 03:45:59 67° NNE 03:45:59 67° NNE 03:51:20 10° N
Cosmos 1140 Rocket 4.0 03:58:10 56° NE 03:58:10 56° NE 04:02:21 10° NNE
CZ-4C R/B 3.8 04:03:04 23° NNW 04:03:04 23° NNW 04:07:36 10° NNE
CZ-2D R/B 3.6 04:03:57 10° N 04:06:25 25° NNW 04:06:25 25° NNW
Cosmos 2297 Rocket 4.3 04:16:13 14° NNW 04:16:13 14° NNW 04:18:15 10° NNW
Cosmos 1954 Rocket 4.4 04:22:58 52° NNW 04:22:58 52° NNW 04:27:27 10° NNE
Cosmos 614 Rocket 4.0 04:22:57 67° NNW 04:22:57 67° NNW 04:27:35 10° NNE
ARIANE 5 R/B 4.0 04:22:44 10° N 04:25:18 24° NNW 04:25:18 24° NNW
BREEZE-M DEB (TANK) 4.2 04:27:18 26° NW 04:30:24 45° N 04:33:28 10° E
Cosmos 371 Rocket 4.4 04:32:34 10° N 04:37:15 44° ENE 04:41:53 10° SE
Cosmos 1570 Rocket 4.0 04:33:35 10° NNW 04:38:54 85° ENE 04:44:14 10° SSE
Cosmos 220 Rocket 3.8 04:39:38 86° SSE 04:39:43 87° ESE 04:44:04 10° NNE
BREEZE-M R/B 4.3 04:42:05 35° SSE 04:42:33 37° SE 04:48:55 10° ENE
Abrixas rocket 3.4 04:44:49 38° NNE 04:44:49 38° NNE 04:47:09 10° ENE
Okean O Rocket 2.5 04:40:00 10° NNE 04:44:11 46° E 04:47:42 14° S
Cosmos 2208 Rocket 3.9 04:41:01 10° NNW 04:46:21 88° ENE 04:51:34 10° SSE
Cosmos 1932 4.5 04:47:30 37° SW 04:50:18 84° WNW 04:56:55 10° NNE
ADEOS II 2.0 04:50:54 10° N 04:56:09 72° WNW 04:58:42 31° SSW
Cosmos 2266 Rocket 4.0 04:49:58 10° NNW 04:56:17 61° W 05:02:34 10° S
Cosmos 1975 2.7 04:52:13 10° N 04:56:20 83° W 05:00:26 10° S
ATLAS 3B R/B 3.4 04:51:33 12° SSW 04:58:20 57° ESE 05:05:19 10° NE
DELTA 2 R/B (1) 3.6 05:01:58 39° WSW 05:03:56 65° S 05:09:27 10° ESE
PSLV R/B 3.6 05:00:11 10° N 05:04:01 70° WNW 05:04:49 51° SW
Okean 1 3.3 05:04:23 52° W 05:04:40 54° W 05:08:36 10° N
Meteor 1-31 Rocket 4.2 05:04:15 10° NNE 05:07:53 37° E 05:11:29 10° SSE
Cosmos 1666 3.3 05:04:50 10° N 05:08:34 57° E 05:12:17 10° SSE
ASTEX 1 3.8 05:03:56 10° N 05:08:34 42° WNW 05:09:52 35° WSW
Meteor 1-18 Rocket 4.4 05:05:26 26° SW 05:08:44 55° WNW 05:14:34 10° N
Tiangong 1 1.9 05:09:37 32° SE 05:09:37 32° SE 05:11:22 10° ESE
SL-8 R/B 3.8 05:09:12 37° W 05:10:58 67° NNW 05:15:46 10° ENE
Resurs 1-4 Rocket 4.2 05:10:51 10° NW 05:11:27 11° NW 05:11:27 11° NW
Cosmos 1943 3.7 05:10:45 10° NW 05:15:50 34° WSW 05:20:52 10° SSW
Cosmos 1844 Rocket 4.0 05:10:45 10° S 05:16:00 41° ESE 05:21:18 10° NE
Cosmos 1607 4.3 05:15:19 27° WSW 05:18:25 49° NW 05:24:37 10° NNE
ATLAS CENTAUR R/B 4.4 05:17:19 10° SE 05:18:28 11° ESE 05:19:37 10° E
Cosmos 1743 2.6 05:15:04 10° N 05:19:00 79° W 05:22:53 10° S
Cosmos 1244 Rocket 4.5 05:13:35 10° N 05:19:59 86° W 05:26:20 10° S
PSLV R/B 3.6 05:18:52 10° N 05:22:57 50° WNW 05:25:26 22° SW
Cosmos 2263 Rocket 2.8 05:21:57 26° WSW 05:24:33 39° WNW 05:29:54 10° N
CZ-4B R/B 3.2 05:20:56 10° N 05:24:51 44° WNW 05:26:42 26° SW
Atlas Centaur 2 3.5 05:22:31 18° SW 05:25:03 24° S 05:29:08 10° SE
PAYLOAD B 4.1 05:22:02 10° N 05:27:33 72° WNW 05:33:00 10° SSW
Cosmos 1544 Rocket 3.7 05:24:47 10° NNW 05:28:59 49° W 05:33:09 10° SSW
Cosmos 1975 Rocket 4.1 05:30:32 24° W 05:31:18 25° WNW 05:34:58 10° NNW
USA 215 4.1 05:25:19 10° ESE 05:31:33 50° NNE 05:37:47 10° NW
Meteor PRIRODA 3.5 05:31:52 10° N 05:35:33 79° WNW 05:39:14 10° SSW
Cosmos 1455 Rocket 3.3 05:32:33 10° NNW 05:36:42 45° W 05:40:48 10° SSW
Meteor 1-28 Rocket 4.0 05:35:32 10° SSE 05:39:10 55° ENE 05:42:52 10° N
Meteor 1-4 Rocket 2.5 05:36:13 10° NNW 05:39:37 52° W 05:42:59 10° S
Cosmos 1437 Rocket 4.3 05:37:01 10° NW 05:39:09 18° WNW 05:39:09 18° WNW
CZ-4B R/B 3.8 05:39:11 10° N 05:43:06 84° WNW 05:47:10 10° SSW
Cosmos 841 Rocket 3.9 05:37:56 10° NNW 05:43:08 69° ENE 05:48:19 10° SSE
Cosmos 468 Rocket 4.2 05:38:53 10° NNW 05:44:03 51° WSW 05:49:08 10° S
NOSS 3-2 (A) 4.4 05:39:44 10° S 05:45:25 49° ESE 05:51:37 10° NE
Meteor 1-13 Rocket 4.4 05:41:33 10° SSW 05:47:26 63° WNW 05:53:21 10° N
Okean-O 3.4 05:43:15 10° NNE 05:47:38 55° E 05:51:58 10° S
ATLAS 5 CENTAUR R/B 3.3 05:42:47 10° NNW 05:48:34 51° NE 05:54:52 10° SE
Cosmos 1486 Rocket 4.1 05:43:38 10° SSW 05:48:53 80° ESE 05:54:07 10° NNE
SKYMED 2 4.2 05:52:12 10° SSE 05:56:28 60° ENE 06:00:45 10° N
Cosmos 1536 Rocket 3.9 05:52:25 10° SSW 05:56:31 41° WNW 06:00:40 10° N
IDEFIX/ARIANE 42P 4.4 05:52:02 10° NNE 05:56:52 36° E 06:01:40 10° SSE
MTI 3.8 05:55:39 10° S 05:58:52 61° W 06:02:06 10° NNW
Cosmos 1900 4.4 05:54:20 10° NNW 05:59:30 80° WSW 06:04:34 10° SSE
Cosmos 1844 4.0 05:54:36 10° SSW 06:00:09 72° ESE 06:05:49 10° NNE
Intercosmos 25 Rocket 4.5 05:57:18 10° SW 06:00:30 21° W 06:03:08 10° NNW
CZ-4B R/B 3.6 05:56:04 10° N 06:01:00 41° WNW 06:05:58 10° SW
Cosmos 540 Rocket 4.5 05:57:06 10° N 06:02:07 51° ENE 06:07:07 10° SE
Cosmos 1763 Rocket 3.6 05:57:49 10° NNW 06:03:02 61° WSW 06:08:15 10° S
CZ-3 R/B 3.4 05:50:33 10° WSW 06:05:33 32° SSW 06:10:48 10° SE
Meteor 2-4 Rocket 3.8 06:02:11 10° SSW 06:07:39 57° WNW 06:13:19 10° N
Cosmos 1745 Rocket 4.0 06:01:25 10° NNW 06:07:45 70° W 06:14:00 10° S
Cosmos 1271 Rocket 2.9 06:05:55 10° N 06:09:56 85° E 06:13:56 10° S
USA 238 DEB 3.8 06:03:24 10° SW 06:10:18 66° NW 06:17:17 10° NNE
USA 238 3.8 06:03:30 10° SW 06:10:24 66° NW 06:17:24 10° NNE
Lacrosse 4 Rocket 3.9 06:07:23 10° N 06:10:53 24° NE 06:14:18 10° ESE
Cosmos 1553 Rocket 4.1 06:08:18 10° SSW 06:14:14 51° WNW 06:20:10 10° N
GEOS 3 Rocket 3.7 06:09:57 10° SE 06:15:08 84° SW 06:20:28 10° NW
NOAA 6 4.1 06:12:44 10° NNE 06:17:57 80° WNW 06:23:08 10° SSW
Okean 1-7 Rocket 3.6 06:14:43 10° S 06:19:13 83° W 06:23:48 10° N
TSX-5 4.2 06:15:37 10° NNW 06:19:24 59° ENE 06:22:37 10° SE
Okean O Rocket 3.1 06:17:21 10° NNW 06:20:12 17° WNW 06:23:01 10° WSW
